Showing default

TRANSIT 5B-2, 704

Orbit data source: Space-Track

TRANSIT 5B-2, 704 is a payload satellite owned by USN BuWeps (US) in LEO that was launched on Thu, 05 Dec 1963 UTC via a THOR ABLESTAR launch vehicle from the Air Force Western Test Range (AFWTR). Payload-class satellites include a variety of spacecraft equipped with specific instruments for various scientific and technological missions. These include communications satellites like Starlink; space stations such as the ISS; scientific satellites like the Hubble; Earth observation satellites from companies like Planet Labs, Umbra, and HawkEye 360; GPS; miniature CubeSats for education and research; and military/defense satellites.

Loading next visibility...
Identifier
704, 1963-049B
Orbit
LEO
Country
Flag of USUS
Related business
Manufacturer
APL
Mission
Spacecraft
Bus & Motor
TRANSIT 5, Unknown motor
Mass
75 kg wet, 75 kg dry
Launch date (UTC)
1963-12-05 (62 years ago)
Launch vehicle
THOR ABLESTAR
Launch site
Air Force Western Test Range (AFWTR)
Object type
Payload
Rocket body
Debris
Shape & HBR
Unknown
Radar Cross Section
Large (>1 m²)

Expand to show TLE details & history
Last TLE update: 10 hours ago

TLE from 10 hours ago
0 TRANSIT 5B-2
1   704U 63049B   26123.62300743  .00000078  00000-0  11146-3 0  9993
2   704  89.9229  70.7733 0036902  68.5448 104.5267 13.47121509 65328
Epoch: 2026-05-03T14:57Z
TLE epoch observation values (Epoch: 2026-05-03T14:57:07.841Z)
Latitude
6.44333°
Longitude
164.95806°
Altitude
1,092.216 km
Speed
7.303 km/s
True Right ascension
16h 43m 03s
True Declination
6° 24' 25"
Sunlit
Object was in full shadow at epoch
Visualization orbit readout
Latitude
Unknown
Longitude
Unknown
Altitude
Unknown
Speed
Unknown
Apparent Right ascension
Unknown
Apparent Declination
Unknown
Sunlit
N/A
Visualization observer readout
Local Sidereal Time
08:29:52
Azimuth
Unknown
Elevation
Unknown
Doppler factor
Unknown
Orbital elements
Apogee altitude
1,107.444 km
Perigee altitude
1,052.4 km
Semi-major axis
7,458.059 km
Eccentricity
0.00369
Inclination
89.9229°
RAAN
70.7733°
Arg. of periapsis
68.5448°
True anomaly
104.93557°
Mean anomaly
104.5267°
Eccentric anomaly
104.73118°
Mean motion
3.3698 °/min
Orbital period
106.83 mins
BSTAR
0.00011146
Loading maneuver chart data...
Computing Atmospheric mass density...
Loading historical data...
Loading historical data...
Loading historical data...
Loading historical data...
Loading historical data...
Loading historical data...
Loading historical data...

Documentation

Showing up to 5 results
|